Location: *
(55.5817°S, 142.4781°W)
Time: 06:31:40
(UTC+00:00)

Cosmos 2242 Rocket - Pass Details

Date: 29 April 2025
Orbit: 614 x 645 km, 82.5° (Epoch: 23 May)

Event Time Altitude Azimuth Distance (km) Brightness Sun altitude
Rises 15:20:24 0° 196° (SSW) 2,936 6.8 -13.0°
Reaches altitude 10° 15:22:42 10° 201° (SSW) 2,022 5.9 -12.7°
Maximum altitude 15:27:01 49° 275° (W) 815 3.8 -12.1°
Drops below altitude 10° 15:31:17 10° 349° (NNW) 2,001 6.2 -11.5°
Sets 15:33:33 0° 354° (N) 2,903 7.1 -11.2°
